Dewpoint
32 33 33 34 35 35 35 34 36 40 42 42 42 44 45 45 45 46 46 47 48 49 49 50 50 50 50
32 33 34 35 35 34 34 33 35 39 42 40 42 41 44 45 46 46 47 48 48 49 49 49 49 48 50
32 33 33 33 34 33 32 34 36 38 39 40 41 42 43 44 44 45 47 47 47 47 47 48 49 47 48
32 31 32 32 32 32 33 34 35 36 38 40 41 41 42 44 45 46 46 46 45 45 47 48 48 47 49
28 29 29 30 30 32 32 32 34 36 37 37 38 38 39 42 46 46 46 46 47 46 46 47 46 46 45
27 26 27 29 30 31 33 33 33 37 36 36 38 37 38 40 43 44 45 44 45 44 45 45 44 43 42
27 26 27 28 30 33 34 35 34 35 35 33 36 34 36 38 43 45 45 45 45 45 44 43 42 42 41
29 29 30 32 34 35 36 36 35 34 36 31 33 33 34 37 42 43 43 42 42 43 42 42 42 40 39
32 33 33 35 35 35 35 33 30 31 34 32 32 32 32 33 36 41 41 43 42 42 41 41 39 38 36
30 31 32 34 34 35 35 30 29 30 33 31 32 32 31 32 33 34 36 41 41 41 40 38 36 33 34
29 29 29 30 31 35 34 31 29 29 34 32 32 31 30 30 31 32 33 34 37 38 38 36 37 35 31
27 26 29 31 32 34 32 32 32 31 32 32 31 31 29 27 28 31 31 32 34 34 34 36 35 34 33
27 27 29 31 33 32 28 30 31 32 32 32 32 31 30 28 27 28 29 30 32 32 31 31 29 30 28
28 29 30 31 31 29 25 29 28 29 31 32 32 32 29 28 26 24 28 26 29 29 29 27 25 25 24
27 28 29 31 30 29 28 28 27 27 27 29 30 30 30 28 25 26 26 26 27 27 26 25 24 24 25
28 29 30 29 27 27 28 27 26 26 25 25 28 26 26 27 30 26 26 25 26 27 26 23 23 24 25
29 30 30 28 27 26 27 25 24 22 21 21 23 25 22 21 25 31 26 26 25 25 25 23 21 24 24
Lifted_Index
16 16 16 16 15 15 14 14 13 12 12 12 11 11 10 10 9 8 7 6 5 3 2 1 0 0 0
15 16 16 16 15 15 14 14 13 12 12 12 11 11 10 9 8 7 5 4 3 2 2 1 0 1 1
14 15 15 15 15 15 14 14 13 13 12 12 12 11 10 8 6 4 3 3 2 2 1 1 1 1 2
14 14 14 15 15 14 14 14 13 13 13 12 12 11 9 6 5 3 3 2 2 2 1 1 2 2 2
14 14 14 14 14 14 14 14 13 13 13 12 12 10 8 6 4 3 3 2 2 2 2 3 3 4 4
14 14 14 15 15 14 14 13 13 13 12 11 10 8 7 5 4 4 3 3 3 3 4 4 4 5 5
15 15 15 15 14 14 13 13 12 11 10 9 7 6 5 4 4 4 3 4 4 4 5 5 5 5 6
16 15 15 14 14 13 13 12 11 9 8 6 5 5 4 4 4 4 4 4 5 5 6 6 6 7 7
15 15 14 14 13 12 12 10 9 7 6 5 4 4 4 4 5 5 5 5 6 6 7 7 7 8 8
15 15 14 14 13 11 10 9 7 6 5 5 5 4 4 5 5 6 6 6 6 7 8 8 9 9 9
14 14 14 13 11 10 9 7 6 6 6 6 5 5 4 4 5 6 6 7 7 8 8 9 9 10 10
14 13 12 11 10 9 7 7 6 6 6 6 5 5 5 4 5 6 7 7 8 8 9 9 10 11 11
12 12 11 10 9 7 7 6 6 6 7 6 6 5 5 5 5 6 7 7 8 8 9 10 11 11 11
11 10 9 8 7 6 6 6 6 6 7 6 6 6 6 6 6 6 7 7 8 8 9 10 11 12 12
9 9 8 7 6 6 6 6 6 6 6 7 7 7 6 7 7 7 7 8 8 9 9 9 10 12 12
8 8 7 6 6 6 6 6 6 6 7 7 7 7 7 7 7 7 7 8 8 9 9 9 10 11 12
8 7 6 6 6 6 6 6 6 6 7 7 7 7 7 7 7 7 7 7 8 9 9 9 10 11 12